INFOJET
Metar trends

METAR/TAF(Classic format)(METAR/TAF Trend/History displayed directly below)
(enter CONUS apts starting with a K(eg. KMCC), enter Alaska/Hawaii apts starting with a P(eg. PANC))

Get Apt METAR code for recent obs


Get Apt METAR code for recent obs + Direct NWS Link (if METAR history doesn't display (which is often)


FAA Surface Weather Observation Stations ASOS/AWOS Readings with Map


NOAA ASOS Recent Observation History (click to select airport code)






EDU METAR history (last 5 updates)



Recent Observations KEDU 272020Z AUTO 01007KT 10SM CLR 21/04 A3025 AO1 METAR KEDU 272000Z AUTO 01009KT 10SM CLR 20/04 A3026 AO1 KEDU 271940Z AUTO 04008KT 10SM CLR 19/06 A3027 AO1 KEDU 271920Z AUTO 02009KT 10SM CLR 19/05 A3027 AO1 METAR KEDU 271900Z AUTO 02006KT 10SM CLR 19/04 A3028 AO1




AvnWthrCntr_BCAWS

ADDS - METARS form results

Aviation Digital Data Service (ADDS)

Output produced by METARs form (2033 UTC 27 February 2020)
found at http://bcaws.aviationweather.gov/metar/data/
 
KEDU 272020Z AUTO 01007KT 10SM CLR 21/04 A3025 RMK AO1
KEDU 272000Z AUTO 01009KT 10SM CLR 20/04 A3026 RMK AO1
KEDU 271940Z AUTO 04008KT 10SM CLR 19/06 A3027 RMK AO1
KEDU 271920Z AUTO 02009KT 10SM CLR 19/05 A3027 RMK AO1
KEDU 271900Z AUTO 02006KT 10SM CLR 19/04 A3028 RMK AO1
KEDU 271840Z AUTO 01006KT 10SM CLR 18/04 A3028 RMK AO1
KEDU 271820Z AUTO 01009KT 10SM CLR 18/03 A3028 RMK AO1
KEDU 271800Z AUTO 36007KT 10SM CLR 17/04 A3028 RMK AO1
KEDU 271740Z AUTO 01008KT 10SM CLR 16/04 A3028 RMK AO1
KEDU 271720Z AUTO 35008KT 10SM CLR 15/04 A3028 RMK AO1
KEDU 271700Z AUTO 36007KT 10SM CLR 14/04 A3028 RMK AO1
KEDU 271640Z AUTO 35005KT 10SM CLR 13/04 A3028 RMK AO1
KEDU 271620Z AUTO 35003KT 10SM CLR 12/04 A3028 RMK AO1
KEDU 271600Z AUTO 35005KT 10SM CLR 10/04 A3027 RMK AO1
KEDU 271540Z AUTO 35005KT 10SM CLR 10/04 A3027 RMK AO1
KEDU 271520Z AUTO 35005KT 10SM CLR 09/04 A3027 RMK AO1
KEDU 271500Z AUTO 36004KT 10SM CLR 09/04 A3026 RMK AO1
KEDU 271440Z AUTO 34004KT 10SM CLR 09/04 A3026 RMK AO1




5 min APT wthr

CWSU Observations






RELOAD current METAR trend





METAR Numeric Codes (usually listed after RMK)

1xxxxx___6-hr maximum temp(2nd digit=0 is positive, 1 is negative)(eg. 10405 = +40.5 degrees Celsius)

2xxxxx___6-hr minimum temp (eg. 21337 = -33.7 degrees Celsius)

4/xxx___Total snow depth in inches (eg. 4/020 = snow depth of 20 inches on ground)

4xxxxxxxx___24-hr maximum/minimum temperatures, 2nd and sixth digits equal 0 for positive and 1 for negative (eg. 401551095 = 24-hr maximum temp of +15.5 degrees Celsius and a 24-hr minimum temp of -9.5 degrees Celsius)

5xxxx___3 hour pressure tendency. The second digit gives the tendency/trend: 0–3 is rising, 4 is steady and 5–8 is falling , the last 3 digits give the pressure change in tenths of a millibar in the last 3 hours. (eg 50009 indicates a rising pressure tendency/trend of 0.9 millibars.)

6xxxx___3 or 6 hour precipitation amount. The last 4 digits are the inches of rain in hundredths. (eg. 60200 = 2 inches of rain)

7xxxx___24-hour precipitation amount. The last 4 digits are the inches of rain in hundredths. (eg. 70500 = 5 inches of rain)

8/xxx___Cloud cover using WMO code. Three digit code follows the /. Lower numbers are for clearer skies, high numbers are for overcast. (I have not seen this in the NorCal airport METARs yet).

98xxx___Duration of sunshine in minutes. The last three digits after 98 are minutes. (eg. 98120 = 120 minutes of sunshine)

931xxx___Snowfall in the last 6-hours. The last three digits display snowfall in inches and tenths. (eg. 931515 = 51.5 inches of snowfall)

933xxx___Liquid water equivalent of the snow (SWE). The last three digits display liquid water equivalent of snow in inches and tenths (eg. 933055 = 5.5 inches of liquid water in snow)


Other METAR codes
SLP155 = current barometric pressure extrapolated to sea level (SLP155 equals 1015.5 hPa)

Pxxxx = liquid-equivalent precipitation accumulated during the last hour to hundredths of inches (P0050 = .5 inch of rain in the past hour)

Txxxxxxxx is the current Temperature and Dew point. The first 4 digits are temperature. The second 4 digits are Dew Point. The first digit of each group is either 0 for above zero Celsius or 1 for below zero Celsius. (eq. T00251015 = Temp +2.5C, Dew Pt -1.5C)







KSAC





KSMF





KMHR





KMCC





KEDU





KBLU





KTRK





KTVL





KRNO





KCEC





KPDX





KSEA





William R Fairchild International (Port Angeles, WA Intl Apt) (KCLM)